Weather reports worldwide

Advertisment
Luqa, Malta (16597): temperature & dewpoint: 14.10.2017 23:00:00 - 20.10.2017 23:00:00 (CEST)Luqa, Malta (16597): wind speed: 14.10.2017 23:00:00 - 20.10.2017 23:00:00 (CEST)Luqa, Malta (16597): wind direction: 14.10.2017 23:00:00 - 20.10.2017 23:00:00 (CEST)Luqa, Malta (16597): reduced air pressure: 14.10.2017 23:00:00 - 20.10.2017 23:00:00 (CEST)Luqa, Malta (16597): visibility: 14.10.2017 23:00:00 - 20.10.2017 23:00:00 (CEST)
Date & Time tt [°C] td [°C] ff [km/h] ff [kn] dd ppp [hPa] vv [km]
20.10.2017 23:00:00 22,0 21,0 24 13 SE - 10
20.10.2017 22:00:00 22,0 21,0 22 12 SE - 10
20.10.2017 21:00:00 23,0 21,0 24 13 SE - 10
20.10.2017 20:00:00 22,7 20,4 22 12 SE 1017,8 10
20.10.2017 19:00:00 23,0 21,0 24 13 SE - 10
20.10.2017 18:00:00 23,0 20,0 26 14 SE - 10
20.10.2017 17:00:00 23,2 20,1 26 14 SE 1016,9 10
20.10.2017 16:00:00 24,0 20,0 26 14 SSE - 10
20.10.2017 15:00:00 25,0 20,0 34 18 SSE - 10
20.10.2017 14:00:00 24,6 20,2 29 16 SSE 1016,8 10
20.10.2017 13:00:00 25,0 20,0 28 15 SSE - 10
20.10.2017 12:00:00 25,0 20,0 29 16 SSE - 10
20.10.2017 11:00:00 24,6 19,8 26 14 SSE 1017,8 10
20.10.2017 10:00:00 24,0 20,0 22 12 SSE - 10
20.10.2017 09:00:00 23,0 20,0 18 10 SSE - 10
20.10.2017 08:00:00 21,7 19,1 11 6 SSE 1016,9 10
20.10.2017 07:00:00 22,0 19,0 15 8 S - 10
20.10.2017 06:00:00 21,0 20,0 11 6 S - 10
20.10.2017 05:00:00 19,2 18,7 11 6 SSE 1016,4 10
20.10.2017 04:00:00 19,0 19,0 13 7 SSE - 10
20.10.2017 03:00:00 19,0 18,0 11 6 SSE - 10
20.10.2017 02:00:00 19,5 18,3 9 5 SSE 1017,0 10
20.10.2017 01:00:00 19,0 18,0 11 6 SSE - 10
20.10.2017 00:00:00 20,0 18,0 9 5 SSE - 10
19.10.2017 23:00:00 19,7 18,5 11 6 SSE 1017,6 10
19.10.2017 22:00:00 21,0 19,0 8 4 S - 10
19.10.2017 21:00:00 21,0 19,0 9 5 SSE - 10
19.10.2017 20:00:00 21,5 18,8 8 4 SSE 1017,6 10
19.10.2017 19:00:00 22,0 19,0 9 5 S - 10
19.10.2017 18:00:00 23,0 18,0 8 4 - - 10
19.10.2017 17:00:00 23,1 17,4 11 6 S 1017,1 10
19.10.2017 16:00:00 24,0 18,0 13 7 SSW - 10
19.10.2017 15:00:00 24,0 19,0 16 9 S - 10
19.10.2017 14:00:00 24,3 16,8 13 7 SSW 1017,9 10
19.10.2017 13:00:00 24,0 17,0 18 10 S - 10
19.10.2017 12:00:00 24,0 17,0 15 8 S - 10
19.10.2017 11:00:00 23,6 16,2 15 8 S 1019,1 10
19.10.2017 10:00:00 23,0 16,0 15 8 S - 10
19.10.2017 09:00:00 22,0 17,0 15 8 S - 10
19.10.2017 08:00:00 19,1 16,6 9 5 SSE 1018,4 10
19.10.2017 07:00:00 18,0 16,0 5 3 SSE - 10
19.10.2017 06:00:00 17,0 15,0 4 2 - - 10
19.10.2017 05:00:00 17,0 15,0 9 5 S 1018,7 10
19.10.2017 04:00:00 17,0 15,0 4 2 S - 10
19.10.2017 03:00:00 18,0 16,0 8 4 S - 10
19.10.2017 02:00:00 18,3 15,1 5 3 S 1019,3 10
19.10.2017 01:00:00 18,0 16,0 9 5 SSW - 10
19.10.2017 00:00:00 18,0 15,0 8 4 SSW - 10
18.10.2017 23:00:00 17,2 14,7 5 3 SSW 1019,9 10
18.10.2017 22:00:00 18,0 15,0 2 1 SSW - 10
18.10.2017 21:00:00 19,0 15,0 2 1 SSW - 10
18.10.2017 20:00:00 19,9 15,3 2 1 S 1019,4 10
18.10.2017 19:00:00 20,0 16,0 4 2 - - 10
18.10.2017 18:00:00 21,0 15,0 8 4 ESE - 10
18.10.2017 17:00:00 22,6 15,7 9 5 ESE 1018,9 10
18.10.2017 16:00:00 23,0 16,0 11 6 E - 10
18.10.2017 15:00:00 25,0 12,0 8 4 WSW - 10
18.10.2017 14:00:00 24,0 14,2 11 6 WSW 1019,9 10
18.10.2017 13:00:00 24,0 16,0 13 7 WSW - 10
18.10.2017 12:00:00 23,0 16,0 8 4 - - 10
18.10.2017 11:00:00 22,5 15,9 8 4 W 1021,6 10
18.10.2017 10:00:00 23,0 17,0 5 3 - - 10
18.10.2017 09:00:00 21,0 17,0 2 1 - - 10
18.10.2017 08:00:00 16,6 16,5 4 2 WSW 1021,5 10
18.10.2017 07:00:00 16,0 16,0 4 2 W - 10
18.10.2017 06:00:00 16,0 16,0 5 3 WNW - 10
18.10.2017 05:00:00 16,4 16,0 5 3 WNW 1021,6 10
18.10.2017 04:00:00 16,0 16,0 5 3 WNW - 10
18.10.2017 03:00:00 16,0 16,0 5 3 NW - 10
18.10.2017 02:00:00 16,1 15,4 5 3 W 1022,9 10
18.10.2017 01:00:00 17,0 16,0 4 2 WNW - 9
18.10.2017 00:00:00 17,0 16,0 4 2 WNW - 9
17.10.2017 23:00:00 17,3 15,7 2 1 W 1023,8 10
17.10.2017 22:00:00 18,0 16,0 2 1 WNW - 10
17.10.2017 21:00:00 19,0 16,0 2 1 - - 10
17.10.2017 20:00:00 19,5 15,6 4 2 - 1023,5 10
17.10.2017 19:00:00 20,0 16,0 5 3 SSE - 10
17.10.2017 18:00:00 20,0 16,0 8 4 SSE - 10
17.10.2017 17:00:00 21,5 16,4 8 4 SE 1023,6 10
17.10.2017 16:00:00 23,0 16,0 8 4 SE - 10
17.10.2017 15:00:00 23,0 17,0 8 4 SE - 10
17.10.2017 14:00:00 23,2 16,7 8 4 SE 1024,6 10
17.10.2017 13:00:00 23,0 17,0 9 5 SW - 10
17.10.2017 12:00:00 23,0 16,0 8 4 NNE - 10
17.10.2017 11:00:00 22,8 16,4 4 2 - 1026,3 10
17.10.2017 10:00:00 22,0 17,0 5 3 - - 10
17.10.2017 09:00:00 21,0 18,0 2 1 - - 9
17.10.2017 08:00:00 16,9 16,6 4 2 WNW 1025,7 8
17.10.2017 07:00:00 16,0 16,0 5 3 W - 8
17.10.2017 06:00:00 17,0 17,0 5 3 W - 8
17.10.2017 05:00:00 17,0 16,7 4 2 WNW 1025,7 9
17.10.2017 04:00:00 17,0 17,0 2 1 WSW - 9
17.10.2017 03:00:00 17,0 17,0 2 1 WNW - 9
17.10.2017 02:00:00 17,0 16,0 2 1 W 1026,4 10
17.10.2017 01:00:00 18,0 16,0 4 2 WNW - 10
17.10.2017 00:00:00 18,0 16,0 4 2 WNW - 10
16.10.2017 23:00:00 18,1 15,9 2 1 - 1026,9 10
16.10.2017 22:00:00 19,0 16,0 2 1 - - 10
16.10.2017 21:00:00 19,0 16,0 0 0 N - 10
16.10.2017 20:00:00 20,4 16,1 5 3 E 1026,9 10
16.10.2017 19:00:00 21,0 16,0 5 3 ENE - 10
16.10.2017 18:00:00 22,0 16,0 8 4 NE - 10
16.10.2017 17:00:00 22,3 16,0 9 5 NNE 1026,3 10
16.10.2017 16:00:00 23,0 16,0 9 5 NNE - 10
16.10.2017 15:00:00 24,0 16,0 9 5 NE - 10
16.10.2017 14:00:00 24,1 15,7 9 5 NNE 1026,9 10
16.10.2017 13:00:00 24,0 16,0 9 5 NE - 10
16.10.2017 12:00:00 24,0 16,0 9 5 NE - 10
16.10.2017 11:00:00 22,9 16,8 11 6 ENE 1027,6 10
16.10.2017 10:00:00 23,0 17,0 9 5 NE - 10
16.10.2017 09:00:00 22,0 18,0 5 3 NE - 10
16.10.2017 08:00:00 18,2 15,9 5 3 NNW 1026,5 10
16.10.2017 07:00:00 18,0 15,0 11 6 N - 10
16.10.2017 06:00:00 17,0 16,0 9 5 NNW - 10
16.10.2017 05:00:00 17,6 16,2 8 4 NW 1026,3 10
16.10.2017 04:00:00 18,0 16,0 8 4 NNW - 10
16.10.2017 03:00:00 18,0 16,0 4 2 - - 10
16.10.2017 02:00:00 17,8 16,2 8 4 NNW 1026,6 10
16.10.2017 01:00:00 18,0 17,0 11 6 NW - 10
16.10.2017 00:00:00 18,0 16,0 9 5 NNW - 10
15.10.2017 23:00:00 18,4 16,3 9 5 NW 1027,2 10
15.10.2017 22:00:00 19,0 16,0 9 5 NW - 10
15.10.2017 21:00:00 19,0 16,0 9 5 NNW - 10
15.10.2017 20:00:00 19,7 15,8 5 3 NW 1026,9 10
15.10.2017 19:00:00 20,0 16,0 8 4 N - 10
15.10.2017 18:00:00 22,0 16,0 9 5 - - 10
15.10.2017 17:00:00 23,1 14,8 9 5 NE 1026,1 10
15.10.2017 16:00:00 22,0 16,0 8 4 NE - 10
15.10.2017 15:00:00 23,0 15,0 4 2 - - 10
15.10.2017 14:00:00 23,9 14,6 8 4 NE 1026,9 10
15.10.2017 13:00:00 24,0 15,0 9 5 NE - 10
15.10.2017 12:00:00 24,0 16,0 11 6 NE - 10
15.10.2017 11:00:00 23,1 15,5 11 6 NE 1027,7 10
15.10.2017 10:00:00 23,0 17,0 11 6 NNE - 10
15.10.2017 09:00:00 21,0 18,0 9 5 N - 10
15.10.2017 08:00:00 17,9 16,5 5 3 NNW 1027,0 10
15.10.2017 07:00:00 18,0 16,0 11 6 N - 10
15.10.2017 06:00:00 17,0 15,0 11 6 NNW - 10
15.10.2017 05:00:00 16,8 15,2 11 6 NNW 1026,2 10
15.10.2017 04:00:00 17,0 15,0 9 5 NNW - 10
15.10.2017 03:00:00 17,0 15,0 9 5 NW - 10
15.10.2017 02:00:00 17,1 14,7 11 6 NNW 1026,5 10
15.10.2017 01:00:00 17,0 15,0 9 5 NNW - 10
15.10.2017 00:00:00 17,0 15,0 8 4 NNW - 10
14.10.2017 23:00:00 17,0 15,0 9 5 NNW - 10

tt = temperature
td = dewpoint
ff = wind speed
dd = wind direction
ppp = reduced air pressure
vv = visibility

Next stations